CW5439 Weather Reports


time (UTC)temp
C
wind
direction
speed
KPH
gust
KPH
rain 1hr
cm
rain 24hr
cm
rain mn
cm
humidity
%
barometer
mb
20260503022205 8 84 9.7 17.7 0.08 0.13 0.13 95 1012.7
20260503021705 8 41 9.7 20.9 0.05 0.10 0.10 95 1012.7
20260503021205 8 52 11.3 20.9 0.05 0.10 0.10 94 1012.7
20260503020705 8 74 9.7 20.9 0.05 0.10 0.10 94 1012.7
20260503020205 8 59 9.7 17.7 0.05 0.08 0.08 94 1012.7
20260503015206 8 73 8.0 17.7 0.05 0.08 0.08 94 1012.7
20260503014705 8 22 8.0 19.3 0.05 0.08 0.08 94 1012.6
20260503014205 8 44 11.3 19.3 0.05 0.08 0.08 94 1012.7
20260503013705 8 38 11.3 20.9 0.05 0.08 0.08 94 1012.7
20260503013205 8 44 11.3 22.5 0.05 0.05 0.05 94 1012.7
20260503012705 8 49 12.9 22.5 0.05 0.05 0.05 94 1012.7
20260503011205 8 63 11.3 24.1 0.05 0.05 0.05 94 1012.9
20260503010707 8 57 12.9 24.1 0.05 0.05 0.05 94 1012.9
20260503010205 8 54 14.5 29.0 0.05 0.05 0.05 94 1012.9
20260503005205 8 61 12.9 29.0 0.03 0.03 0.03 94 1012.9
20260503004705 8 74 11.3 22.5 0.03 0.03 0.03 94 1012.9
20260503004205 8 32 11.3 22.5 0.03 0.03 0.03 94 1013.0
20260503003705 8 37 11.3 20.9 0.03 0.03 0.03 93 1012.9
20260503003204 8 78 9.7 19.3 0.00 0.00 0.00 93 1013.0
20260503002706 8 80 11.3 19.3 0.00 0.00 0.00 93 1013.0
20260503002206 8 53 11.3 20.9 0.00 0.00 0.00 93 1013.0
20260503001705 8 92 11.3 20.9 0.00 0.00 0.00 93 1013.0
20260503001206 8 76 12.9 20.9 0.00 0.00 0.00 93 1013.0
20260503000233 8 70 12.9 27.4 0.00 0.00 0.00 93 1013.1
20260502235705 8 61 12.9 27.4 0.00 0.00 0.00 93 1013.0
20260502235206 8 91 14.5 22.5 0.00 0.00 0.00 92 1013.1
20260502234705 8 69 14.5 22.5 0.00 0.00 0.00 92 1013.1
20260502234205 8 55 14.5 22.5 0.00 0.00 0.00 92 1013.1
20260502233705 8 80 12.9 22.5 0.00 0.00 0.00 92 1013.2
20260502232705 8 64 14.5 27.4 0.00 0.00 0.00 92 1013.1
20260502232206 8 65 16.1 27.4 0.00 0.00 0.00 92 1013.2
20260502231205 8 61 14.5 24.1 0.00 0.00 0.00 91 1013.2
20260502230205 8 101 12.9 25.7 0.00 0.00 0.00 91 1013.2
20260502225704 8 67 12.9 25.7 0.00 0.00 0.00 91 1013.2
20260502225205 8 45 16.1 25.7 0.00 0.00 0.00 91 1013.1
20260502224705 8 72 16.1 25.7 0.00 0.00 0.00 91 1013.1
20260502224205 8 51 14.5 25.7 0.00 0.00 0.00 91 1013.2
20260502223705 8 66 14.5 25.7 0.00 0.00 0.00 91 1013.1
20260502222705 8 81 11.3 19.3 0.00 0.00 0.00 91 1013.1
20260502222205 9 72 11.3 20.9 0.00 0.00 0.00 91 1013.2
20260502221705 9 78 11.3 20.9 0.00 0.00 0.00 91 1013.1
20260502221205 9 53 12.9 20.9 0.00 0.00 0.00 91 1013.1
20260502220205 9 59 11.3 25.7 0.00 0.00 0.00 90 1013.1
20260502215704 9 80 12.9 29.0 0.00 0.00 0.00 90 1013.2
20260502215206 9 65 17.7 29.0 0.00 0.00 0.00 90 1013.1
20260502214705 9 78 17.7 29.0 0.00 0.00 0.00 90 1013.1
20260502214205 9 67 16.1 24.1 0.00 0.00 0.00 90 1013.2
20260502213705 9 69 14.5 24.1 0.00 0.00 0.00 90 1013.3
20260502213205 9 66 14.5 24.1 0.00 0.00 0.00 90 1013.2
20260502212705 9 51 14.5 24.1 0.00 0.00 0.00 90 1013.2
20260502212206 9 78 14.5 22.5 0.00 0.00 0.00 90 1013.2
20260502211705 9 42 12.9 27.4 0.00 0.00 0.00 89 1013.1
20260502211205 9 56 14.5 27.4 0.00 0.00 0.00 89 1013.2
20260502210705 9 40 16.1 27.4 0.00 0.00 0.00 89 1013.1
20260502210205 9 64 14.5 25.7 0.00 0.00 0.00 89 1013.1
20260502205705 9 76 14.5 24.1 0.00 0.00 0.00 89 1013.2
20260502204705 9 44 12.9 22.5 0.00 0.00 0.00 88 1013.1
20260502204205 9 40 12.9 22.5 0.00 0.00 0.00 88 1013.1
20260502203705 9 43 14.5 22.5 0.00 0.00 0.00 88 1013.1
20260502202705 9 80 14.5 25.7 0.00 0.00 0.00 87 1012.9
20260502202205 9 55 14.5 25.7 0.00 0.00 0.00 87 1013.0
20260502201705 10 56 14.5 25.7 0.00 0.00 0.00 87 1013.1
20260502201205 10 67 14.5 20.9 0.00 0.00 0.00 87 1013.1
20260502200705 10 37 12.9 19.3 0.00 0.00 0.00 86 1013.0
20260502195205 10 66 8.0 16.1 0.00 0.00 0.00 86 1012.9
20260502194705 10 59 9.7 19.3 0.00 0.00 0.00 86 1012.8
20260502194205 10 53 9.7 19.3 0.00 0.00 0.00 86 1012.8
20260502193705 10 63 11.3 19.3 0.00 0.00 0.00 86 1012.8
20260502193205 10 43 11.3 19.3 0.00 0.00 0.00 86 1012.6
20260502192705 10 50 12.9 20.9 0.00 0.00 0.00 86 1012.6
20260502192206 10 44 14.5 20.9 0.00 0.00 0.00 86 1012.6
20260502191705 10 46 11.3 22.5 0.00 0.03 0.00 86 1012.6
20260502191205 10 38 11.3 22.5 0.00 0.03 0.00 86 1012.5
20260502190705 10 26 12.9 22.5 0.00 0.03 0.00 86 1012.5
20260502190205 10 36 14.5 27.4 0.00 0.03 0.00 86 1012.4
20260502185705 10 75 14.5 27.4 0.00 0.03 0.00 86 1012.4
20260502185205 10 33 16.1 25.7 0.00 0.03 0.00 86 1012.3
20260502184705 11 42 16.1 24.1 0.00 0.03 0.00 85 1012.3
20260502184205 11 33 14.5 22.5 0.00 0.03 0.00 85 1012.2
20260502183705 11 29 12.9 20.9 0.00 0.03 0.00 85 1012.1
20260502183205 11 11 12.9 25.7 0.00 0.03 0.00 85 1012.2
20260502182705 11 60 12.9 25.7 0.00 0.03 0.00 85 1012.2
20260502182208 11 44 12.9 22.5 0.00 0.03 0.00 86 1012.2
20260502181207 12 48 14.5 22.5 0.00 0.03 0.00 86 1012.0
20260502180705 12 32 11.3 24.1 0.00 0.03 0.00 85 1012.0
20260502180205 12 44 11.3 24.1 0.00 0.03 0.00 85 1012.1
20260502170205 15 271 4.8 16.1 0.00 0.15 0.00 70 1011.6
20260502164205 15 269 8.0 17.7 0.00 0.15 0.00 69 1011.6
20260502163705 15 280 6.4 17.7 0.00 0.15 0.00 73 1011.6
20260502162705 15 234 9.7 20.9 0.00 0.15 0.00 73 1011.6
20260502162205 15 207 9.7 24.1 0.00 0.15 0.00 74 1011.6
20260502161706 15 208 11.3 24.1 0.00 0.15 0.00 74 1011.6
20260502161205 15 246 11.3 24.1 0.00 0.15 0.00 73 1011.5
20260502160705 15 252 11.3 20.9 0.00 0.15 0.00 72 1011.5
20260502152206 16 238 8.0 17.7 0.00 0.15 0.00 73 1011.5
20260502151705 16 246 6.4 16.1 0.00 0.15 0.00 74 1011.5
20260502151205 16 263 8.0 19.3 0.00 0.15 0.00 73 1011.5
20260502150705 16 261 9.7 19.3 0.00 0.15 0.00 74 1011.6
20260502150205 16 279 9.7 19.3 0.00 0.15 0.00 73 1011.8
20260502130705 16 232 11.3 24.1 0.00 0.18 0.00 74 1012.0
20260502130205 16 226 11.3 24.1 0.00 0.18 0.00 73 1012.1
20260502123205 16 209 8.0 16.1 0.00 0.18 0.00 78 1012.3
20260502122732 16 256 8.0 17.7 0.00 0.18 0.00 78 1012.2
20260502122206 16 286 8.0 17.7 0.00 0.18 0.00 79 1012.2
20260502121705 15 236 8.0 22.5 0.00 0.18 0.00 78 1012.2
20260502121205 16 234 9.7 22.5 0.00 0.18 0.00 76 1012.4
20260502120705 16 263 8.0 22.5 0.00 0.18 0.00 76 1012.4
20260502120205 16 247 9.7 19.3 0.00 0.18 0.00 76 1012.3
20260502115705 17 238 9.7 19.3 0.00 0.18 0.00 74 1012.2
20260502115205 17 224 9.7 16.1 0.00 0.18 0.00 74 1012.3
20260502114205 18 265 8.0 16.1 0.00 0.18 0.00 73 1012.3
20260502113205 17 223 6.4 16.1 0.00 0.18 0.00 76 1012.4
20260502112205 16 248 8.0 16.1 0.00 0.18 0.00 78 1012.5
20260502111705 16 236 8.0 16.1 0.00 0.18 0.00 79 1012.5
20260502111205 15 258 6.4 16.1 0.00 0.18 0.00 81 1012.6
20260502110705 15 242 6.4 16.1 0.00 0.18 0.00 83 1012.6
20260502105705 15 273 8.0 17.7 0.00 0.18 0.00 81 1012.6
20260502105205 15 231 8.0 19.3 0.00 0.18 0.00 81 1012.6
20260502104205 14 258 8.0 19.3 0.00 0.18 0.00 83 1012.7
20260502103730 14 257 8.0 16.1 0.00 0.18 0.00 82 1012.7
20260502102704 14 204 8.0 17.7 0.00 0.18 0.00 82 1012.7
20260502101705 14 253 8.0 17.7 0.00 0.18 0.00 82 1012.7
20260502101205 14 273 8.0 19.3 0.00 0.18 0.00 84 1012.7
20260502100705 14 250 9.7 19.3 0.00 0.18 0.00 84 1012.7
20260502100232 13 223 9.7 19.3 0.00 0.18 0.00 84 1012.7
20260502091206 14 249 9.7 17.7 0.00 0.18 0.00 83 1012.7
20260502090705 14 259 9.7 17.7 0.00 0.18 0.00 83 1012.6
20260502071205 11 201 6.4 14.5 0.00 0.18 0.00 95 1012.7
20260502070705 11 223 8.0 14.5 0.00 0.18 0.00 95 1012.7
20260502070205 10 216 6.4 12.9 0.00 0.18 0.00 95 1012.7
20260502065705 10 243 4.8 19.3 0.00 0.18 0.00 95 1012.7
20260502065206 10 217 6.4 19.3 0.00 0.18 0.00 95 1012.7
20260502064205 10 238 6.4 12.9 0.00 0.18 0.00 95 1012.7
20260502063705 10 217 6.4 12.9 0.00 0.18 0.00 95 1012.7
20260502063206 10 217 4.8 12.9 0.00 0.18 0.00 95 1012.7
20260502062705 10 251 6.4 12.9 0.00 0.18 0.00 95 1012.8
20260502062205 10 255 6.4 9.7 0.00 0.18 0.00 95 1012.8
20260502061705 9 240 4.8 9.7 0.00 0.18 0.00 96 1012.7
20260502061205 9 242 4.8 6.4 0.00 0.18 0.00 95 1012.7
20260502060705 8 252 3.2 8.0 0.00 0.18 0.00 95 1012.7
20260502060205 8 257 3.2 8.0 0.00 0.18 0.00 95 1012.7
20260502055705 8 229 3.2 8.0 0.00 0.18 0.00 95 1012.8
20260502055205 8 214 1.6 6.4 0.00 0.18 0.00 94 1012.7
20260502054705 8 271 1.6 4.8 0.00 0.18 0.00 94 1012.7
20260502054206 8 271 0.0 4.8 0.00 0.18 0.00 94 1012.7
20260502053205 8 247 1.6 8.0 0.00 0.18 0.00 94 1012.7
20260502052704 8 258 1.6 9.7 0.00 0.18 0.00 94 1012.6
20260502052231 8 258 3.2 11.3 0.00 0.18 0.00 94 1012.6
20260502051205 8 224 6.4 9.7 0.00 0.18 0.00 94 1012.6
20260502050705 8 211 4.8 8.0 0.00 0.18 0.00 94 1012.6
20260502050205 8 221 4.8 9.7 0.00 0.18 0.00 94 1012.5
20260502045705 8 238 4.8 11.3 0.00 0.18 0.00 94 1012.6
20260502045205 8 225 4.8 11.3 0.00 0.18 0.00 94 1012.6
20260502044705 8 223 6.4 11.3 0.00 0.18 0.00 94 1012.6
20260502044205 8 240 6.4 9.7 0.00 0.18 0.00 94 1012.5
20260502042705 8 230 4.8 6.4 0.00 0.18 0.00 94 1012.5
20260502042205 8 229 3.2 6.4 0.00 0.18 0.00 94 1012.5
20260502041705 8 244 1.6 4.8 0.00 0.18 0.00 93 1012.5
20260502041206 8 286 3.2 4.8 0.00 0.18 0.00 93 1012.6
20260502040705 8 310 3.2 4.8 0.00 0.18 0.00 93 1012.7
20260502040205 8 263 1.6 4.8 0.00 0.18 0.00 93 1012.7
20260502035705 8 271 1.6 4.8 0.00 0.18 0.00 93 1012.7
20260502035206 8 297 1.6 6.4 0.00 0.18 0.00 93 1012.8
20260502034207 8 271 3.2 8.0 0.00 0.18 0.00 93 1012.7
20260502033205 8 226 3.2 8.0 0.00 0.18 0.00 93 1012.8
20260502032705 8 275 3.2 8.0 0.00 0.18 0.00 93 1012.9
20260502032205 8 252 3.2 8.0 0.00 0.18 0.00 93 1012.9
20260502031204 8 247 3.2 6.4 0.00 0.18 0.00 93 1012.9
20260502030705 8 265 3.2 6.4 0.00 0.18 0.00 93 1012.9
20260502030206 8 254 3.2 6.4 0.00 0.18 0.00 93 1013.0
20260502025705 8 245 3.2 4.8 0.00 0.18 0.00 93 1013.0
20260502025205 8 242 3.2 4.8 0.00 0.18 0.00 93 1013.1
20260502024205 8 267 1.6 6.4 0.00 0.18 0.00 93 1013.1
20260502023705 8 266 3.2 6.4 0.00 0.18 0.00 93 1013.1
20260502023205 8 250 3.2 6.4 0.00 0.18 0.00 93 1013.1
20260502022705 8 277 3.2 9.7 0.00 0.18 0.00 93 1013.1